Location: Planetariul Baia Mare
(47.6578°N, 23.5640°E)
Time: 01:17:17
(UTC+03:00)

Envisat - Visible Passes

Search period start: 25 August 2019 00:00
Search period end: 04 September 2019 00:00
Orbit: 764 x 766 km, 98.1° (Epoch: 24 August)

Date Brightness Start Highest point End Pass type
(mag) Time Alt. Az. Time Alt. Az. Time Alt. Az.
26 Aug 6.1 21:16:14 10° WSW 21:18:12 12° W 21:20:12 10° WNW visible
29 Aug 5.9 21:03:52 10° WSW 21:06:48 15° W 21:09:44 10° NW visible
01 Sep 5.8 20:51:51 10° SW 20:55:25 19° W 20:58:59 10° NW visible
03 Sep 6.3 21:19:54 10° W 21:21:17 11° W 21:22:39 10° WNW visible
